ELY859 LLBG-EDDF

Flight info

Callsign ELY859
Flight time N/A
Altitude 34000
Route SUVAS DCT TEZAK L324 SAFTA DCT MAROS DCT LUTIG DCT BENEM UN127 RIKSO DCT DISOR DCT LONTA UL608 DOLEV DCT YUYUH DCT SIMBA DCT AKINI T161 DEBHI DEBHI1B
Aircraft B738/M-SDE2E3FGHIRWXY/LB1

Departure

Time 2026-05-07 09:35
Airport Ben Gurion International Airport (LLBG)

Arrival

Time N/A
Airport Frankfurt Main Airport (EDDF)
Time Latitude Longitude Altitude Speed Heading
2026-05-07 09:07 31.99431 34.90083 154 ft 0 kts 65°
2026-05-07 09:22 31.99428 34.90077 153 ft 2 kts 65°
2026-05-07 09:22 31.99422 34.90061 153 ft 2 kts 65°
2026-05-07 09:22 31.99416 34.90045 153 ft 2 kts 65°
2026-05-07 09:23 31.99412 34.90034 153 ft 1 kts 65°
2026-05-07 09:23 31.99404 34.90020 153 ft 2 kts 37°
2026-05-07 09:23 31.99390 34.90012 153 ft 2 kts 11°
2026-05-07 09:23 31.99375 34.90012 153 ft 2 kts 343°
2026-05-07 09:24 31.99368 34.90015 153 ft 1 kts 329°
2026-05-07 09:24 31.99364 34.90018 153 ft 0 kts 333°
2026-05-07 09:24 31.99365 34.90018 153 ft 0 kts 333°
2026-05-07 09:26 31.99376 34.90011 153 ft 3 kts 333°
2026-05-07 09:27 31.99410 34.89991 153 ft 6 kts 333°
2026-05-07 09:27 31.99471 34.89957 153 ft 12 kts 339°
2026-05-07 09:27 31.99694 34.89874 151 ft 18 kts 332°
2026-05-07 09:28 31.99811 34.89805 150 ft 19 kts 334°
2026-05-07 09:28 31.99935 34.89730 147 ft 20 kts 333°
2026-05-07 09:28 32.00055 34.89655 143 ft 18 kts 330°
2026-05-07 09:28 32.00176 34.89574 142 ft 21 kts 328°
2026-05-07 09:29 32.00267 34.89447 140 ft 20 kts 300°
2026-05-07 09:29 32.00328 34.89326 140 ft 12 kts 301°
2026-05-07 09:29 32.00349 34.89286 139 ft 0 kts 301°
2026-05-07 09:29 32.00352 34.89278 139 ft 4 kts 301°
2026-05-07 09:30 32.00382 34.89219 138 ft 12 kts 301°
2026-05-07 09:30 32.00439 34.89109 136 ft 18 kts 301°
2026-05-07 09:30 32.00512 34.88980 134 ft 16 kts 325°
2026-05-07 09:30 32.00623 34.89016 134 ft 19 kts 31°
2026-05-07 09:31 32.00748 34.89101 135 ft 20 kts 28°
2026-05-07 09:31 32.00871 34.89180 134 ft 17 kts 28°
2026-05-07 09:31 32.00986 34.89255 134 ft 20 kts 29°
2026-05-07 09:31 32.01108 34.89333 134 ft 19 kts 29°
2026-05-07 09:32 32.01232 34.89413 135 ft 20 kts 28°
2026-05-07 09:32 32.01360 34.89495 137 ft 20 kts 28°
2026-05-07 09:32 32.01485 34.89578 137 ft 20 kts 30°
2026-05-07 09:32 32.01614 34.89659 137 ft 21 kts 29°
2026-05-07 09:33 32.01737 34.89747 139 ft 20 kts 30°
2026-05-07 09:33 32.01834 34.89780 137 ft 9 kts 326°
2026-05-07 09:33 32.01841 34.89703 137 ft 11 kts 251°
2026-05-07 09:33 32.01819 34.89600 137 ft 13 kts 259°
2026-05-07 09:34 32.01795 34.89428 136 ft 44 kts 260°
2026-05-07 09:34 32.01696 34.88785 126 ft 113 kts 260°
2026-05-07 09:34 32.01520 34.87640 121 ft 169 kts 261°
2026-05-07 09:34 32.01280 34.86153 494 ft 189 kts 262°
2026-05-07 09:35 32.01016 34.84607 1150 ft 198 kts 261°
2026-05-07 09:35 32.00731 34.83046 2014 ft 196 kts 260°
2026-05-07 09:35 32.00400 34.81491 2761 ft 199 kts 258°
2026-05-07 09:35 32.00045 34.79905 3230 ft 212 kts 259°
2026-05-07 09:36 31.99670 34.78088 3471 ft 239 kts 258°
2026-05-07 09:36 31.99298 34.76173 4139 ft 247 kts 264°
2026-05-07 09:36 31.99453 34.74148 4776 ft 255 kts 288°
2026-05-07 09:36 32.00028 34.72176 5593 ft 258 kts 288°
2026-05-07 09:37 32.00556 34.70131 6324 ft 264 kts 286°
2026-05-07 09:37 32.01057 34.68052 7126 ft 267 kts 285°
2026-05-07 09:37 32.01556 34.65952 7885 ft 270 kts 285°
2026-05-07 09:37 32.02053 34.63808 8646 ft 273 kts 285°
2026-05-07 09:38 32.02558 34.61663 9379 ft 275 kts 285°
2026-05-07 09:38 32.03070 34.59486 10088 ft 278 kts 285°
2026-05-07 09:38 32.03586 34.57277 10511 ft 292 kts 285°
2026-05-07 09:38 32.04147 34.54859 10653 ft 315 kts 284°
2026-05-07 09:39 32.04747 34.52278 10812 ft 336 kts 284°
2026-05-07 09:39 32.05368 34.49607 11352 ft 343 kts 285°
2026-05-07 09:39 32.06007 34.46853 11890 ft 350 kts 284°
2026-05-07 09:39 32.06647 34.44098 12562 ft 351 kts 284°
2026-05-07 09:40 32.07291 34.41324 13263 ft 352 kts 284°
2026-05-07 09:40 32.07930 34.38564 13872 ft 354 kts 284°
2026-05-07 09:40 32.08580 34.35760 14536 ft 355 kts 284°
2026-05-07 09:40 32.09226 34.32966 15145 ft 357 kts 283°
2026-05-07 09:41 32.09880 34.30130 15774 ft 358 kts 283°
2026-05-07 09:41 32.10533 34.27296 16369 ft 359 kts 283°
2026-05-07 09:41 32.11188 34.24455 16939 ft 360 kts 283°
2026-05-07 09:41 32.11841 34.21620 17486 ft 362 kts 283°
2026-05-07 09:42 32.12499 34.18759 18033 ft 363 kts 283°
2026-05-07 09:42 32.13159 34.15887 18559 ft 365 kts 283°
2026-05-07 09:42 32.13817 34.13022 19071 ft 366 kts 283°
2026-05-07 09:42 32.14488 34.10097 19574 ft 367 kts 283°
2026-05-07 09:43 32.15153 34.07201 20064 ft 368 kts 283°
2026-05-07 09:43 32.15828 34.04274 20538 ft 370 kts 283°
2026-05-07 09:43 32.16595 34.01392 20992 ft 372 kts 287°
2026-05-07 09:43 32.17628 33.98600 21416 ft 377 kts 295°
2026-05-07 09:44 32.19031 33.95976 21856 ft 381 kts 301°
2026-05-07 09:44 32.20565 33.93414 22270 ft 382 kts 301°
2026-05-07 09:44 32.22105 33.90855 22664 ft 384 kts 301°
2026-05-07 09:44 32.23636 33.88308 23049 ft 385 kts 301°
2026-05-07 09:45 32.25187 33.85729 23413 ft 387 kts 301°
2026-05-07 09:45 32.26744 33.83143 23809 ft 387 kts 301°
2026-05-07 09:45 32.28314 33.80535 24152 ft 389 kts 301°
2026-05-07 09:45 32.29877 33.77937 24517 ft 390 kts 301°
2026-05-07 09:46 32.31440 33.75338 24843 ft 391 kts 301°
2026-05-07 09:46 32.33019 33.72712 25172 ft 393 kts 301°
2026-05-07 09:46 32.34589 33.70100 25517 ft 393 kts 300°
2026-05-07 09:46 32.36171 33.67465 25800 ft 395 kts 301°
2026-05-07 09:47 32.37767 33.64807 26133 ft 395 kts 300°
2026-05-07 09:47 32.39364 33.62144 26411 ft 397 kts 300°
2026-05-07 09:47 32.40938 33.59517 26683 ft 398 kts 300°
2026-05-07 09:47 32.42536 33.56849 26979 ft 399 kts 300°
2026-05-07 09:48 32.44156 33.54143 27207 ft 401 kts 300°
2026-05-07 09:48 32.45766 33.51449 27477 ft 401 kts 300°
2026-05-07 09:48 32.47356 33.48789 27735 ft 402 kts 300°
2026-05-07 09:48 32.48985 33.46060 27973 ft 403 kts 300°
2026-05-07 09:49 32.50587 33.43376 28219 ft 404 kts 300°
2026-05-07 09:49 32.52214 33.40646 28455 ft 404 kts 300°
2026-05-07 09:49 32.53823 33.37947 28684 ft 405 kts 300°
2026-05-07 09:49 32.55445 33.35223 28957 ft 404 kts 300°
2026-05-07 09:50 32.57070 33.32490 29222 ft 404 kts 300°
2026-05-07 09:50 32.58673 33.29788 29544 ft 403 kts 299°
2026-05-07 09:50 32.60289 33.27064 29844 ft 402 kts 299°
2026-05-07 09:50 32.61869 33.24401 30186 ft 399 kts 299°
2026-05-07 09:51 32.63467 33.21707 30469 ft 398 kts 299°
2026-05-07 09:51 32.65062 33.19017 30765 ft 397 kts 299°
2026-05-07 09:51 32.66644 33.16346 31058 ft 395 kts 299°
2026-05-07 09:51 32.68211 33.13701 31340 ft 394 kts 299°
2026-05-07 09:52 32.69788 33.11035 31638 ft 392 kts 299°
2026-05-07 09:52 32.71346 33.08399 31903 ft 390 kts 298°
2026-05-07 09:52 32.72900 33.05771 32179 ft 389 kts 298°
2026-05-07 09:52 32.74432 33.03180 32422 ft 388 kts 298°
2026-05-07 09:53 32.75995 33.00536 32690 ft 386 kts 298°
2026-05-07 09:53 32.77526 32.97942 32957 ft 384 kts 298°
2026-05-07 09:53 32.79043 32.95374 33176 ft 383 kts 298°
2026-05-07 09:53 32.80576 32.92777 33396 ft 382 kts 297°
2026-05-07 09:54 32.82095 32.90202 33622 ft 381 kts 297°
2026-05-07 09:54 32.83602 32.87642 33813 ft 380 kts 297°
2026-05-07 09:54 32.85115 32.85075 34042 ft 379 kts 297°
2026-05-07 09:55 32.88128 32.79945 34128 ft 378 kts 297°
2026-05-07 09:55 32.91107 32.74860 34128 ft 374 kts 297°
2026-05-07 09:56 32.94067 32.69793 34129 ft 374 kts 297°
2026-05-07 09:56 32.97031 32.64712 34128 ft 375 kts 297°
2026-05-07 09:57 33.00013 32.59578 34128 ft 379 kts 297°
2026-05-07 09:57 33.03027 32.54373 34128 ft 386 kts 297°
2026-05-07 09:58 33.06068 32.49112 34128 ft 390 kts 298°
2026-05-07 09:58 33.09158 32.43758 34127 ft 393 kts 298°
2026-05-07 09:59 33.12262 32.38372 34128 ft 397 kts 298°
2026-05-07 09:59 33.15383 32.32952 34135 ft 399 kts 298°
2026-05-07 10:00 33.18528 32.27493 34138 ft 397 kts 298°
2026-05-07 10:00 33.21629 32.22108 34145 ft 396 kts 298°
2026-05-07 10:01 33.24760 32.16667 34152 ft 396 kts 298°
2026-05-07 10:01 33.27860 32.11274 34155 ft 397 kts 298°
2026-05-07 10:02 33.30991 32.05821 34155 ft 397 kts 298°
2026-05-07 10:02 33.34105 32.00390 34155 ft 397 kts 298°
2026-05-07 10:03 33.37211 31.94965 34154 ft 397 kts 298°
2026-05-07 10:03 33.40316 31.89534 34155 ft 397 kts 298°
2026-05-07 10:04 33.43445 31.84082 34155 ft 398 kts 300°
2026-05-07 10:04 33.47438 31.79388 34154 ft 417 kts 320°
2026-05-07 10:05 33.52754 31.76363 34156 ft 434 kts 333°
2026-05-07 10:05 33.58532 31.74299 34154 ft 436 kts 335°
2026-05-07 10:06 33.64296 31.72215 34127 ft 435 kts 334°
2026-05-07 10:06 33.70069 31.70125 34128 ft 435 kts 334°
2026-05-07 10:07 33.75834 31.68006 34127 ft 433 kts 332°
2026-05-07 10:07 33.81143 31.64875 34128 ft 419 kts 320°
2026-05-07 10:08 33.85734 31.60803 34129 ft 413 kts 315°
2026-05-07 10:08 33.90277 31.56591 34127 ft 413 kts 315°
2026-05-07 10:09 33.94799 31.52364 34128 ft 412 kts 314°
2026-05-07 10:09 33.99313 31.48114 34127 ft 413 kts 314°
2026-05-07 10:10 34.03811 31.43864 34128 ft 412 kts 314°
2026-05-07 10:10 34.08323 31.39588 34127 ft 413 kts 314°
2026-05-07 10:11 34.12801 31.35336 34128 ft 412 kts 314°
2026-05-07 10:11 34.17285 31.31067 34128 ft 412 kts 314°
2026-05-07 10:12 34.21778 31.26782 34128 ft 412 kts 314°
2026-05-07 10:12 34.26246 31.22518 34127 ft 411 kts 314°